{"data":{"norad_id":57977,"epoch":"2026-09-20T05:09:27.025632Z","epoch_age_seconds":162243,"freshness":"FRESH","line1":"1 57977U 23151P   26263.21489613  .00001049  00000+0  47639-4 0  9996","line2":"2 57977  43.0034 332.1005 0001471 264.4633  95.6051 15.27578760165349","mean_motion":15.2757876,"eccentricity":0.0001471,"inclination_deg":43.0034,"raan_deg":332.1005,"arg_perigee_deg":264.4633,"mean_anomaly_deg":95.6051,"bstar":4.7639e-5,"rev_number":16534,"period_min":94.266825233941,"perigee_km":482.04352802734,"apogee_km":484.06209006916,"semimajor_km":6861.1898090483,"source":"CELESTRAK","updated_at":"2026-09-21T09:00:33.751250Z"}}